Other Public Products
Issued by NWS Grand Forks, ND

Home | Current Version | Previous Version | Text Only | Print | Product List | Glossary Off
Versions: 1 2 3 4 5 6 7 8 9 10 11 12 13 14 15 16 17 18 19 20 21 22 23 24 25 26 27 28 29 30 31 32 33 34 35 36 37 38 39 40 41 42 43 44 45 46 47 48 49 50

000
FPUS83 KFGF 300031
OPUFGF
PRAIRIE TO PINES WEATHER ROUNDUP
NATIONAL WEATHER SERVICE EASTERN NORTH DAKOTA/GRAND FORKS ND
700 PM CDT TUE JUL 29 2014

 **SATELLITE DATA USED TO AUGMENT SKY COVER AT AUTOMATED STATIONS**
 *****  WEATHER ACROSS EASTERN NORTH DAKOTA  *****

CITY           SKY/WX    TMP DP  RH WIND       PRES   REMARKS
GRAND FORKS    MOSUNNY   76  54  46 N7        30.09F
6HR MIN TEMP:  73; 6HR MAX TEMP:  79;

GRAND FORKS AF SUNNY     75  56  50 N9        30.11F
GRAND CITY NWS   N/A     75 N/A N/A N3          N/A
BUXTON           N/A     78  53  41 N7          N/A
DEVILS LAKE    SUNNY     73  52  46 N5        30.12S
6HR MIN TEMP:  72; 6HR MAX TEMP:  75;

FARGO          MOSUNNY   76  54  46 NE7       30.09F
6HR MIN TEMP:  74; 6HR MAX TEMP:  81;

WAHPETON ARPT  CLEAR     75  46  35 NW8       30.09F
$$

 *****  WEATHER ACROSS CENTRAL AND WESTERN NORTH DAKOTA  *****

CITY           SKY/WX    TMP DP  RH WIND       PRES   REMARKS
JAMESTOWN      SUNNY     75  52  44 N5        30.12F
6HR MIN TEMP:  73; 6HR MAX TEMP:  79;

BISMARCK       PTSUNNY   78  55  44 E13       30.14S
6HR MIN TEMP:  75; 6HR MAX TEMP:  81;

MINOT          MOSUNNY   72  63  73 CALM      30.14F
6HR MIN TEMP:  67; 6HR MAX TEMP:  79; 6HR PCP:  0.09;

MINOT AFB      MOSUNNY   73  64  75 S2        30.14F
6HR MIN TEMP:  71; 6HR MAX TEMP:  78; 6HR PCP:  0.02;

GARRISON         N/A     74  60  61 E6        30.15S
6HR MIN TEMP:  66; 6HR MAX TEMP:  79;

WILLISTON      MOSUNNY   83  53  35 N13       30.15S
6HR MIN TEMP:  81; 6HR MAX TEMP:  86;

DICKINSON      MOSUNNY   77  58  51 E10       30.13S
6HR MIN TEMP:  78; 6HR MAX TEMP:  85;

HETTINGER      MOSUNNY   81  48  31 CALM      30.15F
6HR MIN TEMP:  76; 6HR MAX TEMP:  83;

$$

 *****  OTHER OBSERVATIONS NORTHEAST NORTH DAKOTA  *****

CITY           SKY/WX    TMP DP  RH WIND       PRES   REMARKS
WALHALLA       FAIR      75  57  53 N7          N/A
LANGDON        FAIR      73  54  49 NE7       30.13F
CAVALIER       FAIR      75  54  46 N7        30.10F
GRAFTON        FAIR      75  54  46 N7        30.09F
CANDO          FAIR      73  55  53 N7        30.14S
FORT TOTTEN      N/A     77  57  50 N2        29.95
ROLLA          FAIR      72  55  56 N6        30.16S
RUGBY          MOCLDY    73  63  68 E7        30.13S
 ***** THE ABOVE OBSERVATIONS ARE NON NWS ARE NOT QUALITY
        CONTROLLED AND MAY MIS-REPORT RAIN FOR SNOW...
$$

 *****  OTHER OBSERVATIONS SOUTHEAST NORTH DAKOTA *****

CITY           SKY/WX    TMP DP  RH WIND       PRES   REMARKS
COOPERSTOWN    NOT AVBL
VALLEY CITY    FAIR      75  50  41 N7        30.12F
OAKES          NOT AVBL
GWINNER        CLEAR     75  54  46 NW5       30.12F
SHEYENNE NWR     N/A     78  52  39 NW6       29.95
BUFFALO          N/A     74  46  35 N6          N/A
WYNDMERE       NOT AVBL
 ***** THE ABOVE OBSERVATIONS ARE NON NWS ARE NOT QUALITY
       CONTROLLED AND MAY MIS-REPORT RAIN FOR SNOW...
$$

  *****  WEATHER ACROSS NORTHERN MINNESOTA  *****

CITY           SKY/WX    TMP DP  RH WIND       PRES   REMARKS
FLAG ISLAND    SUNNY     73  55  53 N16       30.04F
WARROAD        SUNNY     73  55  53 NW10      30.07S
ROSEAU         SUNNY     73  57  56 NW7       30.07F
HALLOCK        SUNNY     75  55  50 NW7       30.08F
THF RVR FALLS  SUNNY     73  55  53 NW8       30.09F
6HR MIN TEMP:  72; 6HR MAX TEMP:  75;

HALSTAD          N/A     76  54  44 N3          N/A
FOSSTON        SUNNY     72  55  56 NW8       30.10S
BAUDETTE       MOSUNNY   75  55  49 NW10      30.06S
6HR MIN TEMP:  74; 6HR MAX TEMP:  78;

WASKISH        SUNNY     73  55  53 CALM      30.06S
CROOKSTON      SUNNY     73  57  56 N7        30.10F
$$
  *****  WEATHER ACROSS CENTRAL AND WEST MINNESOTA  *****

CITY           SKY/WX    TMP DP  RH WIND       PRES   REMARKS
BEMIDJI        MOSUNNY   73  55  53 NW13      30.08S
PARK RAPIDS    SUNNY     73  53  49 NW12      30.08F
6HR MIN TEMP:  71; 6HR MAX TEMP:  77;

WADENA         SUNNY     72  55  56 NW6       30.09S
DETROIT LAKES  SUNNY     72  54  53 NW9       30.12S
MOORHEAD       SUNNY     75  54  46 NE5       30.10S
FERGUS FALLS   SUNNY     73  52  46 N6        30.09S
ELBOW LAKE     FAIR      73  55  54 NW8       30.09F
MORRIS MN      SUNNY     73  55  53 NW6       30.09F
STAPLES        SUNNY     72  52  49 NW10      30.08S
WHEATON        SUNNY     72  55  56 W6        30.11F
$$
  *****  WEATHER ELSEWHERE ACROSS MINNESOTA  *****

CITY           SKY/WX    TMP DP  RH WIND       PRES   REMARKS
DULUTH         LGT RAIN  65  58  78 NW14      30.04R
6HR MIN TEMP:  62; 6HR MAX TEMP:  78; 6HR PCP:  0.13;

INTRNTL FALLS  PTSUNNY   64  59  83 W7        30.03F
6HR MIN TEMP:  63; 6HR MAX TEMP:  78; 6HR PCP:  0.04;

ELY            LGT RAIN  59  55  88 CALM      30.04F
CLOQUET        MOSUNNY   66  59  77 W3        30.03F
BRAINERD       MOSUNNY   73  52  47 NW10      30.06F
6HR MIN TEMP:  72; 6HR MAX TEMP:  77; 6HR PCP: TRACE;

HIBBING        MOSUNNY   69  56  62 NW10      30.03S
6HR MIN TEMP:  69; 6HR MAX TEMP:  78; 6HR PCP: TRACE;

ALEXANDRIA     SUNNY     75  53  46 NW12      30.11F
6HR MIN TEMP:  72; 6HR MAX TEMP:  77;

SAINT CLOUD    SUNNY     77  52  41 NW12      30.06S
6HR MIN TEMP:  76; 6HR MAX TEMP:  82;

MINNEAPOLIS    MOSUNNY   78  54  43 NW16G22   30.03F
6HR MIN TEMP:  76; 6HR MAX TEMP:  81;

$$

  *****  WEATHER ACROSS SOUTH DAKOTA  *****

CITY           SKY/WX    TMP DP  RH WIND       PRES   REMARKS
SIOUX FALLS    MOSUNNY   75  55  49 N6        30.13F
6HR MIN TEMP:  71; 6HR MAX TEMP:  76;

BROOKINGS      NOT AVBL
WATERTOWN      SUNNY     73  50  44 NW8       30.13F
6HR MIN TEMP:  69; 6HR MAX TEMP:  76;

HURON          SUNNY     77  52  41 N7        30.11F
6HR MIN TEMP:  73; 6HR MAX TEMP:  79;

SISSETON         N/A     75  55  49 N8        30.10F
ABERDEEN       SUNNY     75  52  44 NE8       30.12F
6HR MIN TEMP:  73; 6HR MAX TEMP:  77;

MITCHELL       SUNNY     77  52  41 N9        30.12F
PIERRE         MOSUNNY   81  51  35 NE13      30.12F
6HR MIN TEMP:  77; 6HR MAX TEMP:  83;

MOBRIDGE       SUNNY     80  53  39 NE6       30.12S
RAPID CITY     CLOUDY    71  55  56 SE3       30.21F
6HR MIN TEMP:  66; 6HR MAX TEMP:  73; 6HR PCP: TRACE;

$$

  *****  SOME WEATHER IN NEARBY STATES *****

CITY           SKY/WX    TMP DP  RH WIND       PRES   REMARKS
GLASGOW MT     SUNNY     90  42  18 NE14G21   30.14S
6HR MIN TEMP:  87; 6HR MAX TEMP:  92;

GREAT FALLS MT MOSUNNY   91  41  17 E13G18    30.13F
6HR MIN TEMP:  83; 6HR MAX TEMP:  94;

CHEYENNE WY    LGT RAIN  59  56  89 S13       30.30R FOG
6HR MIN TEMP:  59; 6HR MAX TEMP:  68; 6HR PCP:  0.16;

SCOTTSBLUFF NE CLOUDY    72  60  66 E12       30.19R
6HR MIN TEMP:  72; 6HR MAX TEMP:  85;

OMAHA NE       PTSUNNY   77  54  44 NE7       30.12F
6HR MIN TEMP:  76; 6HR MAX TEMP:  81;

DES MOINES IA  MOSUNNY   78  52  40 NW7       30.08F
6HR MIN TEMP:  75; 6HR MAX TEMP:  81;

DAVENPORT IA   SUNNY     74  58  57 W8        30.05S
6HR MIN TEMP:  74; 6HR MAX TEMP:  78;

CHICAGO IL     MOSUNNY   75  55  49 W13       29.98S
6HR MIN TEMP:  75; 6HR MAX TEMP:  81;

EAU CLAIRE WI  MOSUNNY   71  58  63 W7        30.02S
6HR MIN TEMP:  67; 6HR MAX TEMP:  80; 6HR PCP:  0.01;

LA CROSSE WI   LGT RAIN  67  60  78 E5        30.04R
6HR MIN TEMP:  70; 6HR MAX TEMP:  82;

$$

  *****  SOME NATIONAL WEATHER *****

CITY           SKY/WX    TMP DP  RH WIND       PRES   REMARKS
LA GUARDIA NY  CLOUDY    73  50  44 NW10      29.93R



USA.gov is the U.S. government's official web portal to all federal, state and local government web resources and services.